HULIANWANG DIGUI-23

导读 | 豆包AI

“HULIANWANG DIGUI-23”是中国于2025年4月28日发射的低轨卫星,隶属于“互联网”星座体系。作为中国商业航天领域低轨互联网星座建设的重要组成部分,该卫星承担着验证低轨卫星通信技术、推进全球互联网覆盖布局的任务,将为后续星座组网运营积累关键数据,推动天地一体化网络构建。

基本信息
目录编号:
63690
目录名称:
HULIANWANG DIGUI-23
国际标识:
2025-086D
轨道中心:
EARTH
卫星名称:
HULIANWANG DIGUI-23
卫星全名:
HULIANWANG DIGUI-23
卫星状态:
在轨 (已飞行320 天)
发射日期:
2025-04-28 UTC
国别 :
中国 (CN)
星等 :
--
轨道信息
数据来源 国际轨道数据
星历时间: 2026-03-14T06:33:03+0800
10小时前
查看轨道信息
半长轴: 7546.01km
偏心率: 0.0001857
轨道倾角: 86.516°
近地点辐角 87.077°
升交点赤经 345.282°
平近点角 273.058°
近地点: 1166.471km
远地点: 1169.275km
周期: 108.727分钟
每日圈数: 13.244231
详细信息
使用方式:
暂无
2D轨道图
3D轨道图
轨道高度分析图
轨道倾角分析图
轨道综合分析图
查看轨道综合分析图